Regional Weather Roundup
Issued by NWS Upton, NY

Current Version | Previous Version | Text Only | Print | Product List | Glossary Off
Versions: 1 2 3 4 5 6 7 8 9 10 11 12 13 14 15 16 17 18 19 20 21 22 23 24 25 26 27 28 29 30 31 32 33 34 35 36 37 38 39 40 41 42 43 44 45 46 47 48 49 50
000 ASUS41 KOKX 050704 RWROKX REGIONAL WEATHER ROUNDUP NATIONAL WEATHER SERVICE NEW YORK NY 300 AM EDT SAT SEP 05 2015 NOTE: "FAIR" INDICATES FEW OR NO CLOUDS BELOW 12,000 FEET WITH NO SIGNIFICANT WEATHER AND/OR OBSTRUCTIONS TO VISIBILITY. NYZ071-072-176-178-NJZ106-104-050800- NEW YORK CITY METRO AREA CITY SKY/WX TMP DP RH WIND PRES REMARKS CENTRAL PARK MOCLDY 71 60 68 VRB7 30.25S LAGUARDIA APRT PTCLDY 69 61 75 E10 30.22S KENNEDY INTL PTCLDY 69 60 73 NE7 30.23S NEWARK/LIBERTY PTCLDY 70 61 73 NE8 30.22S BRNX BOT. GARD N/A 68 61 77 S5 30.23F TETERBORO CLOUDY 71 61 70 E7 30.21F $$ NYZ177-179-078>081-050800- LONG ISLAND NEW YORK CITY SKY/WX TMP DP RH WIND PRES REMARKS FARMINGDALE PTCLDY 66 60 81 NE6 30.22F ISLIP MOCLDY 65 59 81 NE6 30.21F SHIRLEY CLEAR 63 60 90 N3 30.23S WESTHAMPTON CLEAR 64 59 83 NE7 30.24S MONTAUK POINT N/A 67 59 75 NE7 30.23F $$ NYZ052-065-067-050800- HUDSON VALLEY CITY SKY/WX TMP DP RH WIND PRES REMARKS WHITE PLAINS PTCLDY 65 59 81 E5 30.23F NEWBURGH PTCLDY 68 64 88 VRB6 30.25 MONTGOMERY CLOUDY 69 63 81 E6 30.24S POUGHKEEPSIE PTCLDY 68 57 68 E5 30.23S ALBANY PTCLDY 66 57 72 S6 30.22F $$ NJZ001-105-106-008-010-013-015-019>022-104-050800- NEW JERSEY CITY SKY/WX TMP DP RH WIND PRES REMARKS NEWARK/LIBERTY PTCLDY 70 61 73 NE8 30.22S TETERBORO CLOUDY 71 61 70 E7 30.21F CALDWELL CLOUDY 70 62 76 E5 30.23S MORRISTOWN MOCLDY 64 61 88 NE3 30.23R SOMERVILLE PTCLDY 68 62 81 CALM 30.20R SUSSEX PTCLDY 62 60 93 CALM 30.24R FOG ANDOVER N/A 64 64 100 CALM 30.24R TRENTON MOCLDY 68 64 87 NE7 30.20R MILLVILLE CLOUDY 71 66 84 NE7 30.17R ATLANTIC CITY MOCLDY 72 66 81 NE10 30.16F WRIGHTSTOWN PTCLDY 68 65 91 NE6 30.17R TOMS RIVER CLOUDY 72 64 78 NE9 30.20R BELMAR CLOUDY 72 61 68 E13 30.20S $$ PAZ047>061-062-071-050800- EASTERN PENNSYLVANIA CITY SKY/WX TMP DP RH WIND PRES REMARKS PHILADELPHIA MOCLDY 72 65 78 NE10 30.19S ALLENTOWN MOCLDY 70 64 81 E6 30.22S SCRANTON MOCLDY 71 64 78 CALM 30.22R $$ CTZ002-004>006-009-010-012-RIZ004-006-007-MAZ004-011-015-050800- SOUTHERN NEW ENGLAND IN CT CITY SKY/WX TMP DP RH WIND PRES REMARKS BRADLEY INTL CLEAR 58 55 90 CALM 30.25S HARTFORD CLEAR 62 54 74 CALM 30.25S DANBURY PTCLDY 64 55 72 E3 30.26S WTRBRY/OXFORD CLEAR 61 52 72 CALM 30.26F BRIDGEPORT CLEAR 66 58 75 N8 30.24S MERIDEN PTCLDY 61 56 83 CALM 30.24F NEW HAVEN CLEAR 61 56 83 N5 30.24S CHESTER NOT AVBL GROTON CLEAR 60 59 96 N7 30.23F WILLIMANTIC CLEAR 59 56 89 CALM 30.25F IN RI CITY SKY/WX TMP DP RH WIND PRES REMARKS PROVIDENCE CLEAR 60 58 92 N5 30.25S BLOCK ISLAND MOCLDY 64 59 82 NE8 30.22S WESTERLY CLEAR 60 58 92 N3 30.24F IN MA CITY SKY/WX TMP DP RH WIND PRES REMARKS BOSTON CLEAR 60 55 83 NW5 30.25F WORCESTER CLEAR 58 48 69 N3 30.26F WESTFIELD CLEAR 57 55 93 CALM 30.25F PROVINCETOWN N/A 50 43 76 E3 30.24F NANTUCKET N/A N/A N/A N/A MISG N/A $$ ANZ330-335-338-340-345-350-353-355-050800- COASTAL MARINE OBSERVATIONS STATION/POSITION TIME SKY/WX TEMP WIND PRES VSBY WAVE AIR SEA DIR/SP/G HT/PER (UTC) (F) (DEG/KT/KT) (MB) (MI) (FT/S) NY HARB ENTRANCE 0550 71 74 80/ 17/ 21 1022.0 6/ 6 4S FIRE IS NOT AVBL 20S FIRE ISLAND 0550 71 75 70/ 19/ 23 1021.6 7/ 7 GREAT SOUTH BAY 0600 69 79 60/ 14/ 19 N/A 23SW MTP 0650 68 72 60/ 14/ 17 1022.2 5/ 6 HUDSON CANYON NOT AVBL KINGS POINT 0600 68 74 CALM / 2 1023.0 EXECUTION ROCKS 0600 70 100/ 10/ 12 N/A CENTRAL LI SOUND NOT AVBL EASTERN LI SOUND 0600 65 71 50/ 10/ 12 N/A ROBBINS REEF 0600 70 80/ 12/ 14 1022.1 $$ >>>>>>>>>>>>>>>>>>>>>>>>>>>> KEY <<<<<<<<<<<<<<<<<<<<<<<<<<< > < > SKY/WX - SKY CONDITION/PRESENT WEATHER < > TMP - TEMPERATURE IN FAHRENHEIT < > DP - DEWPOINT IN FAHRENHEIT < > RH - RELATIVE HUMIDITY IN PERCENT < > WIND - DIRECTION AND SPEED IN MPH < > PRES - MEAN SEA LEVEL PRESSURE IN INCHES OF HG < > WCI - WIND CHILL INDEX < > VSB - VISIBILITY IN MILES < > HX - HEAT INDEX < > TC - TEMPERATURE IN CELSIUS < > VRB - VARIABLE WIND DIRECTION < > < >>>>>>>>>>>>>>>>>>>>>>>>>>>> KEY <<<<<<<<<<<<<<<<<<<<<<<<<<<

USA.gov is the U.S. government's official web portal to all federal, state and local government web resources and services.